| time (UTC) | temp F | wind direction | speed MPH | gust MPH | rain 1hr in | rain 24hr in | rain mn in | humidity % | barometer mb |
| 20260902230427 | 81 | 31 | 5.0 | 12.0 | 0.00 | 0.00 | 0.00 | 34 | 961.2 |
| 20260902225927 | 81 | 72 | 3.0 | 12.0 | 0.00 | 0.00 | 0.00 | 37 | 961.3 |
| 20260902225426 | 82 | 0 | 2.0 | 12.0 | 0.00 | 0.00 | 0.00 | 33 | 961.3 |
| 20260902224927 | 81 | 48 | 5.0 | 11.0 | 0.00 | 0.00 | 0.00 | 34 | 961.4 |
| 20260902224425 | 81 | 6 | 5.0 | 11.0 | 0.00 | 0.00 | 0.00 | 34 | 961.3 |
| 20260902223927 | 81 | 71 | 2.0 | 9.0 | 0.00 | 0.00 | 0.00 | 35 | 961.4 |
| 20260902223425 | 81 | 71 | 4.0 | 12.0 | 0.00 | 0.00 | 0.00 | 35 | 961.5 |
| 20260902222927 | 81 | 47 | 2.0 | 13.0 | 0.00 | 0.00 | 0.00 | 35 | 961.5 |
| 20260902222425 | 82 | 13 | 5.0 | 13.0 | 0.00 | 0.00 | 0.00 | 34 | 961.5 |
| 20260902221926 | 82 | 0 | 8.0 | 13.0 | 0.00 | 0.00 | 0.00 | 34 | 961.5 |
| 20260902221433 | 82 | 79 | 1.0 | 11.0 | 0.00 | 0.00 | 0.00 | 36 | 961.6 |
| 20260902221425 | 82 | 109 | 5.0 | 12.0 | 0.00 | 0.00 | 0.00 | 36 | 961.4 |
| 20260902220424 | 82 | 68 | 2.0 | 10.0 | 0.00 | 0.00 | 0.00 | 34 | 961.3 |
| 20260902215926 | 82 | 65 | 2.0 | 10.0 | 0.00 | 0.00 | 0.00 | 34 | 961.4 |
| 20260902215424 | 83 | 23 | 3.0 | 10.0 | 0.00 | 0.00 | 0.00 | 34 | 961.5 |
| 20260902214925 | 83 | 20 | 5.0 | 11.0 | 0.00 | 0.00 | 0.00 | 34 | 961.5 |
| 20260902214425 | 84 | 48 | 5.0 | 11.0 | 0.00 | 0.00 | 0.00 | 33 | 961.5 |
| 20260902213924 | 84 | 100 | 2.0 | 9.0 | 0.00 | 0.00 | 0.00 | 34 | 961.5 |
| 20260902213431 | 84 | 355 | 1.0 | 14.0 | 0.00 | 0.00 | 0.00 | 33 | 961.7 |
| 20260902213425 | 84 | 41 | 3.0 | 14.0 | 0.00 | 0.00 | 0.00 | 33 | 961.7 |
| 20260902212424 | 84 | 55 | 3.0 | 12.0 | 0.00 | 0.00 | 0.00 | 33 | 961.9 |
| 20260902211925 | 84 | 0 | 2.0 | 12.0 | 0.00 | 0.00 | 0.00 | 34 | 962.0 |
| 20260902211423 | 84 | 0 | 7.0 | 12.0 | 0.00 | 0.00 | 0.00 | 34 | 962.0 |
| 20260902210925 | 83 | 8 | 3.0 | 11.0 | 0.00 | 0.00 | 0.00 | 33 | 962.2 |
| 20260902210423 | 83 | 0 | 4.0 | 9.0 | 0.00 | 0.00 | 0.00 | 32 | 962.3 |
| 20260902205926 | 83 | 51 | 3.0 | 9.0 | 0.00 | 0.00 | 0.00 | 33 | 962.3 |
| 20260902205431 | 83 | 1 | 6.0 | 10.0 | 0.00 | 0.00 | 0.00 | 33 | 962.5 |
| 20260902205423 | 83 | 0 | 3.0 | 11.0 | 0.00 | 0.00 | 0.00 | 34 | 962.4 |
| 20260902205051 | 83 | 333 | 6.0 | 11.0 | 0.00 | 0.00 | 0.00 | 34 | 962.6 |
| 20260902204546 | 83 | 1 | 5.0 | 11.0 | 0.00 | 0.00 | 0.00 | 34 | 962.6 |
| 20260902203422 | 83 | 14 | 4.0 | 10.0 | 0.00 | 0.00 | 0.00 | 33 | 962.7 |
| 20260902202922 | 83 | 8 | 3.0 | 10.0 | 0.00 | 0.00 | 0.00 | 34 | 962.7 |
| 20260902202422 | 83 | 10 | 2.0 | 10.0 | 0.00 | 0.00 | 0.00 | 33 | 962.8 |
| 20260902201924 | 83 | 351 | 6.0 | 10.0 | 0.00 | 0.00 | 0.00 | 35 | 962.9 |
| 20260902201421 | 83 | 0 | 7.0 | 10.0 | 0.00 | 0.00 | 0.00 | 35 | 962.9 |
| 20260902200931 | 82 | 10 | 1.0 | 7.0 | 0.00 | 0.00 | 0.00 | 32 | 962.9 |
| 20260902200924 | 83 | 7 | 2.0 | 7.0 | 0.00 | 0.00 | 0.00 | 33 | 962.9 |
| 20260902195922 | 82 | 1 | 5.0 | 7.0 | 0.00 | 0.00 | 0.00 | 32 | 963.1 |
| 20260902195420 | 82 | 1 | 5.0 | 9.0 | 0.00 | 0.00 | 0.00 | 32 | 963.0 |
| 20260902194923 | 81 | 0 | 5.0 | 9.0 | 0.00 | 0.00 | 0.00 | 34 | 963.1 |
| 20260902194428 | 81 | 8 | 0.0 | 1.0 | 0.00 | 0.00 | 0.00 | 39 | 963.1 |
| 20260902194420 | 81 | 8 | 0.0 | 1.0 | 0.00 | 0.00 | 0.00 | 38 | 963.1 |
| 20260902193422 | 81 | 8 | 0.0 | 3.0 | 0.00 | 0.00 | 0.00 | 41 | 963.1 |
| 20260902192921 | 80 | 8 | 0.0 | 3.0 | 0.00 | 0.00 | 0.00 | 44 | 963.2 |
| 20260902192419 | 80 | 8 | 0.0 | 3.0 | 0.00 | 0.00 | 0.00 | 40 | 963.2 |
| 20260902191928 | 79 | 8 | 3.0 | 4.0 | 0.00 | 0.00 | 0.00 | 36 | 963.4 |
| 20260902191920 | 80 | 8 | 1.0 | 4.0 | 0.00 | 0.00 | 0.00 | 40 | 963.3 |
| 20260902190929 | 79 | 8 | 0.0 | 0.0 | 0.00 | 0.00 | 0.00 | 46 | 963.4 |
| 20260902190922 | 79 | 8 | 0.0 | 3.0 | 0.00 | 0.00 | 0.00 | 44 | 963.4 |
| 20260902185921 | 78 | 8 | 0.0 | 0.0 | 0.00 | 0.00 | 0.00 | 42 | 963.4 |
| 20260902185427 | 78 | 8 | 0.0 | 1.0 | 0.00 | 0.00 | 0.00 | 44 | 963.5 |
| 20260902185419 | 78 | 8 | 0.0 | 1.0 | 0.00 | 0.00 | 0.00 | 43 | 963.5 |
| 20260902185049 | 78 | 8 | 0.0 | 1.0 | 0.00 | 0.00 | 0.00 | 45 | 963.5 |
| 20260902183921 | 77 | 8 | 0.0 | 1.0 | 0.00 | 0.00 | 0.00 | 46 | 963.5 |
| 20260902183424 | 77 | 8 | 0.0 | 2.0 | 0.00 | 0.00 | 0.00 | 49 | 963.6 |
| 20260902183418 | 78 | 8 | 0.0 | 2.0 | 0.00 | 0.00 | 0.00 | 49 | 963.5 |
| 20260902182420 | 77 | 8 | 1.0 | 2.0 | 0.00 | 0.00 | 0.00 | 48 | 963.6 |
| 20260902181921 | 77 | 8 | 0.0 | 2.0 | 0.00 | 0.00 | 0.00 | 47 | 963.6 |
| 20260902181419 | 77 | 8 | 0.0 | 2.0 | 0.00 | 0.00 | 0.00 | 47 | 963.7 |
| 20260902180921 | 77 | 7 | 0.0 | 3.0 | 0.00 | 0.00 | 0.00 | 48 | 963.7 |
| 20260902180419 | 77 | 6 | 0.0 | 3.0 | 0.00 | 0.00 | 0.00 | 49 | 963.7 |
| 20260902175921 | 76 | 6 | 0.0 | 3.0 | 0.00 | 0.00 | 0.00 | 51 | 963.7 |
| 20260902175426 | 76 | 0 | 0.0 | 3.0 | 0.00 | 0.00 | 0.00 | 51 | 963.9 |
| 20260902175419 | 76 | 0 | 0.0 | 2.0 | 0.00 | 0.00 | 0.00 | 51 | 963.8 |
| 20260902174419 | 75 | 0 | 0.0 | 3.0 | 0.00 | 0.00 | 0.00 | 51 | 964.0 |
| 20260902173919 | 75 | 0 | 2.0 | 3.0 | 0.00 | 0.00 | 0.00 | 52 | 964.0 |
| 20260902173419 | 74 | 357 | 1.0 | 3.0 | 0.00 | 0.00 | 0.00 | 54 | 964.0 |
| 20260902172927 | 71 | 0 | 0.0 | 0.0 | 0.00 | 0.00 | 0.00 | 59 | 964.0 |
| 20260902172920 | 73 | 358 | 0.0 | 3.0 | 0.00 | 0.00 | 0.00 | 55 | 964.1 |
| 20260902171920 | 71 | 0 | 0.0 | 1.0 | 0.00 | 0.00 | 0.00 | 61 | 964.0 |
| 20260902171423 | 70 | 0 | 0.0 | 1.0 | 0.00 | 0.00 | 0.00 | 59 | 964.4 |
| 20260902171416 | 70 | 0 | 0.0 | 1.0 | 0.00 | 0.00 | 0.00 | 61 | 964.3 |
| 20260902170416 | 70 | 0 | 0.0 | 0.0 | 0.00 | 0.00 | 0.00 | 63 | 964.4 |
| 20260902165920 | 70 | 0 | 0.0 | 1.0 | 0.00 | 0.00 | 0.00 | 65 | 964.4 |
| 20260902165424 | 69 | 0 | 0.0 | 0.0 | 0.00 | 0.00 | 0.00 | 58 | 964.6 |
| 20260902165417 | 69 | 0 | 0.0 | 1.0 | 0.00 | 0.00 | 0.00 | 64 | 964.5 |
| 20260902164416 | 69 | 0 | 0.0 | 0.0 | 0.00 | 0.00 | 0.00 | 60 | 964.4 |
| 20260902163919 | 68 | 0 | 0.0 | 1.0 | 0.00 | 0.00 | 0.00 | 61 | 964.5 |
| 20260902163418 | 68 | 0 | 0.0 | 1.0 | 0.00 | 0.00 | 0.00 | 62 | 964.5 |
| 20260902162918 | 68 | 0 | 0.0 | 1.0 | 0.00 | 0.00 | 0.00 | 62 | 964.6 |
| 20260902162416 | 67 | 358 | 0.0 | 1.0 | 0.00 | 0.00 | 0.00 | 65 | 964.7 |
| 20260902161929 | 67 | 0 | 0.0 | 3.0 | 0.00 | 0.00 | 0.00 | 63 | 964.8 |
| 20260902161920 | 67 | 358 | 0.0 | 0.0 | 0.00 | 0.00 | 0.00 | 61 | 964.7 |
| 20260902160921 | 67 | 0 | 0.0 | 3.0 | 0.00 | 0.00 | 0.00 | 63 | 964.7 |
| 20260902160416 | 67 | 358 | 0.0 | 0.0 | 0.00 | 0.00 | 0.00 | 63 | 964.7 |
| 20260902155918 | 67 | 358 | 0.0 | 0.0 | 0.00 | 0.00 | 0.00 | 65 | 964.8 |
| 20260902155415 | 66 | 358 | 0.0 | 1.0 | 0.00 | 0.00 | 0.00 | 67 | 964.8 |
| 20260902154917 | 64 | 358 | 0.0 | 1.0 | 0.00 | 0.00 | 0.00 | 70 | 964.9 |
| 20260902154415 | 63 | 358 | 0.0 | 0.0 | 0.00 | 0.00 | 0.00 | 70 | 965.0 |
| 20260902153919 | 62 | 358 | 0.0 | 0.0 | 0.00 | 0.00 | 0.00 | 70 | 965.0 |
| 20260902153415 | 61 | 358 | 0.0 | 0.0 | 0.00 | 0.00 | 0.00 | 72 | 965.1 |
| 20260902152918 | 60 | 358 | 0.0 | 3.0 | 0.00 | 0.00 | 0.00 | 71 | 965.2 |
| 20260902152414 | 60 | 358 | 0.0 | 3.0 | 0.00 | 0.00 | 0.00 | 72 | 965.2 |
| 20260902151921 | 59 | 358 | 1.0 | 3.0 | 0.00 | 0.00 | 0.00 | 73 | 965.2 |
| 20260902151414 | 59 | 358 | 0.0 | 1.0 | 0.00 | 0.00 | 0.00 | 73 | 965.2 |
| 20260902150919 | 59 | 358 | 0.0 | 1.0 | 0.00 | 0.00 | 0.00 | 72 | 965.2 |
| 20260902150422 | 58 | 358 | 0.0 | 2.0 | 0.00 | 0.00 | 0.00 | 72 | 965.4 |
| 20260902150414 | 58 | 358 | 0.0 | 2.0 | 0.00 | 0.00 | 0.00 | 72 | 965.3 |
| 20260902145415 | 58 | 357 | 0.0 | 1.0 | 0.00 | 0.00 | 0.00 | 73 | 965.4 |
| 20260902144915 | 58 | 357 | 0.0 | 1.0 | 0.00 | 0.00 | 0.00 | 73 | 965.4 |
| 20260902144414 | 58 | 357 | 0.0 | 2.0 | 0.00 | 0.00 | 0.00 | 73 | 965.4 |
| 20260902143923 | 57 | 357 | 1.0 | 3.0 | 0.00 | 0.00 | 0.00 | 73 | 965.5 |
| 20260902143915 | 58 | 357 | 0.0 | 2.0 | 0.00 | 0.00 | 0.00 | 73 | 965.4 |
| 20260902142915 | 57 | 357 | 0.0 | 3.0 | 0.00 | 0.00 | 0.00 | 73 | 965.5 |
| 20260902142412 | 57 | 357 | 0.0 | 1.0 | 0.00 | 0.00 | 0.00 | 73 | 965.6 |
| 20260902141915 | 57 | 358 | 0.0 | 2.0 | 0.00 | 0.00 | 0.00 | 73 | 965.6 |
| 20260902141413 | 57 | 358 | 0.0 | 2.0 | 0.00 | 0.00 | 0.00 | 72 | 965.8 |
| 20260902140915 | 57 | 358 | 0.0 | 2.0 | 0.00 | 0.00 | 0.00 | 72 | 965.7 |
| 20260902140413 | 57 | 358 | 0.0 | 2.0 | 0.00 | 0.00 | 0.00 | 73 | 965.8 |
| 20260902135923 | 56 | 357 | 0.0 | 3.0 | 0.00 | 0.00 | 0.00 | 75 | 965.6 |
| 20260902135914 | 56 | 358 | 0.0 | 2.0 | 0.00 | 0.00 | 0.00 | 74 | 965.7 |
| 20260902134412 | 56 | 357 | 0.0 | 4.0 | 0.00 | 0.00 | 0.00 | 76 | 965.2 |
| 20260902133913 | 55 | 358 | 0.0 | 2.0 | 0.00 | 0.00 | 0.00 | 76 | 965.1 |
| 20260902133420 | 54 | 207 | 0.0 | 0.0 | 0.00 | 0.00 | 0.00 | 77 | 965.2 |
| 20260902133412 | 55 | 357 | 0.0 | 1.0 | 0.00 | 0.00 | 0.00 | 76 | 965.1 |
| 20260902132411 | 54 | 207 | 0.0 | 0.0 | 0.00 | 0.00 | 0.00 | 78 | 965.4 |
| 20260902131914 | 54 | 207 | 0.0 | 2.0 | 0.00 | 0.00 | 0.00 | 78 | 965.4 |
| 20260902131411 | 54 | 207 | 0.0 | 2.0 | 0.00 | 0.00 | 0.00 | 79 | 965.6 |
| 20260902130912 | 53 | 247 | 0.0 | 0.0 | 0.00 | 0.00 | 0.00 | 79 | 965.4 |
| 20260902130410 | 53 | 247 | 0.0 | 0.0 | 0.00 | 0.00 | 0.00 | 79 | 965.2 |
| 20260902125912 | 53 | 247 | 0.0 | 1.0 | 0.00 | 0.00 | 0.00 | 79 | 965.2 |
| 20260902125410 | 53 | 247 | 0.0 | 1.0 | 0.00 | 0.00 | 0.00 | 79 | 965.1 |
| 20260902124913 | 53 | 247 | 0.0 | 2.0 | 0.00 | 0.00 | 0.00 | 79 | 965.2 |
| 20260902124410 | 53 | 247 | 0.0 | 2.0 | 0.00 | 0.00 | 0.00 | 79 | 965.2 |
| 20260902123912 | 53 | 247 | 0.0 | 1.0 | 0.00 | 0.00 | 0.00 | 79 | 965.3 |
| 20260902123410 | 53 | 247 | 0.0 | 1.0 | 0.00 | 0.00 | 0.00 | 79 | 965.3 |
| 20260902122920 | 53 | 247 | 0.0 | 1.0 | 0.00 | 0.00 | 0.00 | 78 | 965.3 |
| 20260902122912 | 53 | 247 | 0.0 | 1.0 | 0.00 | 0.00 | 0.00 | 78 | 965.4 |
| 20260902121911 | 53 | 247 | 0.0 | 5.0 | 0.00 | 0.00 | 0.00 | 78 | 965.2 |
| 20260902121410 | 53 | 247 | 0.0 | 5.0 | 0.00 | 0.00 | 0.00 | 78 | 965.4 |
| 20260902120911 | 53 | 247 | 1.0 | 5.0 | 0.00 | 0.00 | 0.00 | 78 | 965.3 |
| 20260902120411 | 53 | 247 | 0.0 | 1.0 | 0.00 | 0.00 | 0.00 | 78 | 965.3 |
| 20260902115911 | 53 | 247 | 0.0 | 0.0 | 0.00 | 0.00 | 0.00 | 78 | 965.3 |
| 20260902115409 | 53 | 247 | 0.0 | 0.0 | 0.00 | 0.00 | 0.00 | 78 | 965.3 |
| 20260902114911 | 53 | 247 | 0.0 | 1.0 | 0.00 | 0.00 | 0.00 | 76 | 965.3 |
| 20260902114408 | 53 | 247 | 0.0 | 3.0 | 0.00 | 0.00 | 0.00 | 75 | 965.3 |
| 20260902113910 | 53 | 247 | 0.0 | 1.0 | 0.00 | 0.00 | 0.00 | 75 | 965.3 |
| 20260902113408 | 53 | 245 | 0.0 | 1.0 | 0.00 | 0.00 | 0.00 | 74 | 965.3 |
| 20260902112911 | 54 | 244 | 0.0 | 1.0 | 0.00 | 0.00 | 0.00 | 74 | 965.5 |
| 20260902112409 | 54 | 244 | 0.0 | 0.0 | 0.00 | 0.00 | 0.00 | 74 | 965.5 |
| 20260902111910 | 54 | 244 | 0.0 | 0.0 | 0.00 | 0.00 | 0.00 | 73 | 965.6 |
| 20260902111416 | 54 | 244 | 0.0 | 0.0 | 0.00 | 0.00 | 0.00 | 71 | 965.5 |
| 20260902111409 | 54 | 244 | 0.0 | 0.0 | 0.00 | 0.00 | 0.00 | 72 | 965.5 |
| 20260902110409 | 55 | 245 | 0.0 | 0.0 | 0.00 | 0.00 | 0.00 | 71 | 965.5 |
| 20260902105908 | 55 | 244 | 0.0 | 0.0 | 0.00 | 0.00 | 0.00 | 71 | 965.5 |
| 20260902105416 | 55 | 244 | 0.0 | 0.0 | 0.00 | 0.00 | 0.00 | 70 | 965.5 |
| 20260902105408 | 55 | 244 | 0.0 | 0.0 | 0.00 | 0.00 | 0.00 | 71 | 965.5 |
| 20260902104409 | 55 | 244 | 0.0 | 0.0 | 0.00 | 0.00 | 0.00 | 70 | 965.5 |
| 20260902103909 | 55 | 244 | 0.0 | 0.0 | 0.00 | 0.00 | 0.00 | 69 | 965.5 |
| 20260902103408 | 55 | 244 | 0.0 | 1.0 | 0.00 | 0.00 | 0.00 | 69 | 965.6 |
| 20260902102908 | 56 | 244 | 0.0 | 1.0 | 0.00 | 0.00 | 0.00 | 69 | 965.5 |
| 20260902102415 | 56 | 244 | 0.0 | 1.0 | 0.00 | 0.00 | 0.00 | 68 | 965.5 |
| 20260902102407 | 56 | 244 | 0.0 | 0.0 | 0.00 | 0.00 | 0.00 | 69 | 965.5 |
| 20260902101415 | 56 | 244 | 0.0 | 0.0 | 0.00 | 0.00 | 0.00 | 67 | 965.7 |
| 20260902101407 | 56 | 244 | 0.0 | 1.0 | 0.00 | 0.00 | 0.00 | 67 | 965.6 |
| 20260902101034 | 56 | 244 | 0.0 | 0.0 | 0.00 | 0.00 | 0.00 | 67 | 965.6 |
| 20260902095909 | 56 | 244 | 0.0 | 0.0 | 0.00 | 0.00 | 0.00 | 69 | 965.6 |
| 20260902095406 | 56 | 244 | 0.0 | 0.0 | 0.00 | 0.00 | 0.00 | 68 | 965.6 |
| 20260902094909 | 56 | 244 | 0.0 | 0.0 | 0.00 | 0.00 | 0.00 | 67 | 965.7 |
| 20260902094407 | 56 | 244 | 0.0 | 0.0 | 0.00 | 0.00 | 0.00 | 67 | 965.7 |
| 20260902093907 | 56 | 244 | 0.0 | 0.0 | 0.00 | 0.00 | 0.00 | 67 | 965.8 |
| 20260902093406 | 56 | 244 | 0.0 | 0.0 | 0.00 | 0.00 | 0.00 | 67 | 965.9 |
| 20260902092907 | 56 | 244 | 0.0 | 0.0 | 0.00 | 0.00 | 0.00 | 67 | 966.0 |
| 20260902092406 | 56 | 244 | 0.0 | 0.0 | 0.00 | 0.00 | 0.00 | 67 | 966.0 |
| 20260902091908 | 56 | 244 | 0.0 | 0.0 | 0.00 | 0.00 | 0.00 | 67 | 966.1 |
| 20260902091407 | 56 | 244 | 0.0 | 1.0 | 0.00 | 0.00 | 0.00 | 67 | 966.1 |
| 20260902090914 | 57 | 243 | 0.0 | 2.0 | 0.00 | 0.00 | 0.00 | 68 | 966.1 |
| 20260902090907 | 56 | 244 | 0.0 | 2.0 | 0.00 | 0.00 | 0.00 | 67 | 966.1 |
| 20260902090529 | 57 | 241 | 0.0 | 4.0 | 0.00 | 0.00 | 0.00 | 68 | 966.0 |
| 20260902085413 | 57 | 231 | 0.0 | 0.0 | 0.00 | 0.00 | 0.00 | 67 | 966.1 |
| 20260902085405 | 57 | 241 | 0.0 | 4.0 | 0.00 | 0.00 | 0.00 | 67 | 966.0 |
| 20260902085033 | 57 | 230 | 0.0 | 0.0 | 0.00 | 0.00 | 0.00 | 66 | 965.9 |
| 20260902083907 | 57 | 230 | 0.0 | 2.0 | 0.00 | 0.00 | 0.00 | 66 | 965.9 |
| 20260902083405 | 57 | 226 | 0.0 | 3.0 | 0.00 | 0.00 | 0.00 | 67 | 966.0 |
| 20260902082907 | 57 | 224 | 0.0 | 3.0 | 0.00 | 0.00 | 0.00 | 66 | 965.9 |
| 20260902082404 | 57 | 224 | 0.0 | 1.0 | 0.00 | 0.00 | 0.00 | 66 | 966.0 |
| 20260902081907 | 57 | 224 | 0.0 | 1.0 | 0.00 | 0.00 | 0.00 | 65 | 966.0 |
| 20260902081403 | 57 | 220 | 0.0 | 0.0 | 0.00 | 0.00 | 0.00 | 65 | 966.0 |
| 20260902080905 | 57 | 220 | 0.0 | 0.0 | 0.00 | 0.00 | 0.00 | 65 | 966.1 |
| 20260902080403 | 58 | 220 | 0.0 | 0.0 | 0.00 | 0.00 | 0.00 | 66 | 966.0 |
| 20260902075905 | 58 | 219 | 0.0 | 0.0 | 0.00 | 0.00 | 0.00 | 66 | 966.0 |
| 20260902075412 | 58 | 219 | 0.0 | 2.0 | 0.00 | 0.00 | 0.00 | 65 | 966.2 |
| 20260902075405 | 58 | 219 | 0.0 | 0.0 | 0.00 | 0.00 | 0.00 | 65 | 966.1 |
| 20260902074404 | 58 | 219 | 0.0 | 2.0 | 0.00 | 0.00 | 0.00 | 65 | 966.4 |
| 20260902073912 | 57 | 268 | 0.0 | 2.0 | 0.00 | 0.00 | 0.00 | 64 | 966.5 |
| 20260902073904 | 58 | 266 | 0.0 | 2.0 | 0.00 | 0.00 | 0.00 | 64 | 966.5 |
| 20260902072905 | 57 | 269 | 0.0 | 2.0 | 0.00 | 0.00 | 0.00 | 65 | 966.5 |
| 20260902072402 | 57 | 269 | 0.0 | 0.0 | 0.00 | 0.00 | 0.00 | 66 | 966.5 |
| 20260902071905 | 58 | 269 | 0.0 | 0.0 | 0.00 | 0.00 | 0.00 | 68 | 966.5 |
| 20260902071403 | 58 | 269 | 0.0 | 3.0 | 0.00 | 0.00 | 0.00 | 69 | 966.4 |
| 20260902070905 | 58 | 269 | 0.0 | 3.0 | 0.00 | 0.00 | 0.00 | 69 | 966.4 |
| 20260902070402 | 58 | 275 | 0.0 | 4.0 | 0.00 | 0.00 | 0.00 | 69 | 966.2 |
| 20260902065905 | 58 | 275 | 0.0 | 4.0 | 0.00 | 0.00 | 0.00 | 71 | 966.2 |
| 20260902065402 | 57 | 227 | 0.0 | 1.0 | 0.00 | 0.00 | 0.00 | 70 | 966.2 |
| 20260902064911 | 57 | 197 | 0.0 | 1.0 | 0.00 | 0.00 | 0.00 | 67 | 966.1 |
| 20260902064904 | 57 | 197 | 0.0 | 1.0 | 0.00 | 0.00 | 0.00 | 70 | 966.2 |
| 20260902063911 | 57 | 199 | 0.0 | 0.0 | 0.00 | 0.00 | 0.00 | 69 | 966.2 |
| 20260902063903 | 57 | 199 | 0.0 | 0.0 | 0.00 | 0.00 | 0.00 | 68 | 966.1 |
| 20260902062903 | 58 | 199 | 0.0 | 0.0 | 0.00 | 0.00 | 0.00 | 69 | 966.1 |
| 20260902062403 | 58 | 197 | 0.0 | 0.0 | 0.00 | 0.00 | 0.00 | 68 | 966.1 |
| 20260902061902 | 58 | 197 | 0.0 | 0.0 | 0.00 | 0.00 | 0.00 | 68 | 966.4 |
| 20260902061402 | 58 | 197 | 0.0 | 0.0 | 0.00 | 0.00 | 0.00 | 68 | 966.4 |
| 20260902060902 | 58 | 197 | 0.0 | 1.0 | 0.00 | 0.00 | 0.00 | 67 | 966.5 |
| 20260902060407 | 58 | 197 | 0.0 | 2.0 | 0.00 | 0.00 | 0.00 | 65 | 966.4 |
| 20260902060400 | 58 | 197 | 0.0 | 2.0 | 0.00 | 0.00 | 0.00 | 66 | 966.7 |
| 20260902055408 | 58 | 197 | 0.0 | 0.0 | 0.00 | 0.00 | 0.00 | 65 | 966.2 |
| 20260902055401 | 58 | 199 | 0.0 | 2.0 | 0.00 | 0.00 | 0.00 | 65 | 966.4 |
| 20260902054407 | 58 | 197 | 0.0 | 3.0 | 0.00 | 0.00 | 0.00 | 64 | 966.1 |
| 20260902054400 | 58 | 197 | 0.0 | 0.0 | 0.00 | 0.00 | 0.00 | 65 | 966.1 |
| 20260902053359 | 59 | 197 | 0.0 | 3.0 | 0.00 | 0.00 | 0.00 | 63 | 966.2 |
| 20260902052900 | 59 | 199 | 0.0 | 2.0 | 0.00 | 0.00 | 0.00 | 62 | 966.1 |
| 20260902052400 | 60 | 206 | 0.0 | 0.0 | 0.00 | 0.00 | 0.00 | 61 | 966.1 |
| 20260902051901 | 60 | 206 | 0.0 | 1.0 | 0.00 | 0.00 | 0.00 | 60 | 966.0 |
| 20260902051407 | 61 | 206 | 0.0 | 0.0 | 0.00 | 0.00 | 0.00 | 59 | 966.0 |
| 20260902051359 | 61 | 206 | 0.0 | 1.0 | 0.00 | 0.00 | 0.00 | 59 | 966.0 |
| 20260902050359 | 61 | 206 | 0.0 | 1.0 | 0.00 | 0.00 | 0.00 | 59 | 966.1 |
| 20260902045901 | 62 | 206 | 0.0 | 2.0 | 0.00 | 0.00 | 0.00 | 58 | 966.2 |
| 20260902045406 | 62 | 209 | 0.0 | 1.0 | 0.00 | 0.00 | 0.00 | 56 | 966.4 |
| 20260902045359 | 62 | 204 | 0.0 | 2.0 | 0.00 | 0.00 | 0.00 | 58 | 966.4 |
| 20260902044358 | 63 | 209 | 0.0 | 0.0 | 0.00 | 0.00 | 0.00 | 56 | 966.2 |
| 20260902043900 | 63 | 209 | 0.0 | 0.0 | 0.00 | 0.00 | 0.00 | 55 | 966.2 |
| 20260902043408 | 65 | 209 | 0.0 | 0.0 | 0.00 | 0.00 | 0.00 | 52 | 966.2 |
| 20260902043400 | 64 | 209 | 0.0 | 0.0 | 0.00 | 0.00 | 0.00 | 54 | 966.1 |
| 20260902042406 | 66 | 149 | 0.0 | 3.0 | 0.00 | 0.00 | 0.00 | 49 | 966.2 |
| 20260902042359 | 65 | 209 | 0.0 | 0.0 | 0.00 | 0.00 | 0.00 | 51 | 966.2 |
| 20260902042025 | 66 | 149 | 0.0 | 3.0 | 0.00 | 0.00 | 0.00 | 50 | 966.4 |
| 20260902040859 | 66 | 149 | 0.0 | 1.0 | 0.00 | 0.00 | 0.00 | 48 | 966.2 |
| 20260902040358 | 66 | 165 | 0.0 | 2.0 | 0.00 | 0.00 | 0.00 | 47 | 966.4 |
| 20260902035859 | 66 | 171 | 0.0 | 3.0 | 0.00 | 0.00 | 0.00 | 47 | 966.2 |
| 20260902035405 | 67 | 161 | 0.0 | 5.0 | 0.00 | 0.00 | 0.00 | 45 | 966.1 |
| 20260902035359 | 66 | 162 | 0.0 | 3.0 | 0.00 | 0.00 | 0.00 | 46 | 966.2 |
| 20260902035026 | 68 | 159 | 0.0 | 5.0 | 0.00 | 0.00 | 0.00 | 43 | 966.2 |
| 20260902033858 | 69 | 172 | 1.0 | 5.0 | 0.00 | 0.00 | 0.00 | 40 | 966.4 |
| 20260902033357 | 69 | 161 | 1.0 | 7.0 | 0.00 | 0.00 | 0.00 | 40 | 966.4 |
| 20260902032858 | 70 | 171 | 2.0 | 7.0 | 0.00 | 0.00 | 0.00 | 38 | 966.4 |
| 20260902032357 | 71 | 161 | 1.0 | 7.0 | 0.00 | 0.00 | 0.00 | 37 | 966.2 |
| 20260902031907 | 72 | 166 | 1.0 | 6.0 | 0.00 | 0.00 | 0.00 | 37 | 966.2 |
| 20260902031859 | 71 | 144 | 0.0 | 7.0 | 0.00 | 0.00 | 0.00 | 36 | 966.1 |
| 20260902030859 | 72 | 148 | 0.0 | 3.0 | 0.00 | 0.00 | 0.00 | 36 | 966.1 |
| 20260902030356 | 72 | 93 | 0.0 | 3.0 | 0.00 | 0.00 | 0.00 | 36 | 966.0 |
| 20260902025859 | 73 | 141 | 0.0 | 3.0 | 0.00 | 0.00 | 0.00 | 36 | 966.0 |
| 20260902025355 | 74 | 114 | 0.0 | 4.0 | 0.00 | 0.00 | 0.00 | 34 | 966.0 |
| 20260902024858 | 74 | 89 | 0.0 | 4.0 | 0.00 | 0.00 | 0.00 | 34 | 965.9 |
| 20260902023856 | 76 | 76 | 0.0 | 1.0 | 0.00 | 0.00 | 0.00 | 34 | 965.9 |
| 20260902023356 | 76 | 76 | 0.0 | 0.0 | 0.00 | 0.00 | 0.00 | 34 | 965.9 |
| 20260902022905 | 77 | 75 | 0.0 | 0.0 | 0.00 | 0.00 | 0.00 | 32 | 965.9 |
| 20260902022857 | 77 | 76 | 0.0 | 0.0 | 0.00 | 0.00 | 0.00 | 32 | 965.8 |
| 20260902021856 | 78 | 75 | 0.0 | 0.0 | 0.00 | 0.00 | 0.00 | 33 | 965.8 |
| 20260902021403 | 79 | 75 | 0.0 | 1.0 | 0.00 | 0.00 | 0.00 | 34 | 965.9 |
| 20260902021357 | 78 | 75 | 0.0 | 0.0 | 0.00 | 0.00 | 0.00 | 33 | 965.9 |
| 20260902020356 | 79 | 75 | 0.0 | 1.0 | 0.00 | 0.00 | 0.00 | 33 | 965.9 |
| 20260902015856 | 80 | 75 | 0.0 | 0.0 | 0.00 | 0.00 | 0.00 | 33 | 965.8 |
| 20260902015401 | 80 | 75 | 0.0 | 0.0 | 0.00 | 0.00 | 0.00 | 32 | 965.9 |
| 20260902015354 | 80 | 75 | 0.0 | 0.0 | 0.00 | 0.00 | 0.00 | 32 | 965.9 |
| 20260902015022 | 80 | 75 | 0.0 | 0.0 | 0.00 | 0.00 | 0.00 | 32 | 965.9 |
| 20260902013857 | 81 | 75 | 0.0 | 3.0 | 0.00 | 0.00 | 0.00 | 31 | 965.9 |
| 20260902013354 | 82 | 75 | 0.0 | 3.0 | 0.00 | 0.00 | 0.00 | 30 | 965.9 |
| 20260902012855 | 82 | 75 | 0.0 | 1.0 | 0.00 | 0.00 | 0.00 | 30 | 965.9 |
| 20260902012353 | 82 | 75 | 0.0 | 0.0 | 0.00 | 0.00 | 0.00 | 30 | 965.8 |
| 20260902011854 | 82 | 75 | 0.0 | 1.0 | 0.00 | 0.00 | 0.00 | 29 | 965.9 |
| 20260902010856 | 83 | 75 | 0.0 | 3.0 | 0.00 | 0.00 | 0.00 | 28 | 965.8 |
| 20260902010400 | 83 | 72 | 0.0 | 4.0 | 0.00 | 0.00 | 0.00 | 28 | 965.9 |
| 20260902010354 | 83 | 75 | 0.0 | 3.0 | 0.00 | 0.00 | 0.00 | 28 | 965.9 |
| 20260902005400 | 84 | 87 | 0.0 | 6.0 | 0.00 | 0.00 | 0.00 | 27 | 965.9 |
| 20260902005354 | 84 | 71 | 0.0 | 4.0 | 0.00 | 0.00 | 0.00 | 28 | 965.9 |
| 20260902005018 | 84 | 82 | 2.0 | 6.0 | 0.00 | 0.00 | 0.00 | 26 | 965.9 |
| 20260902003853 | 84 | 102 | 0.0 | 7.0 | 0.00 | 0.00 | 0.00 | 25 | 965.9 |
| 20260902003521 | 85 | 92 | 4.0 | 7.0 | 0.00 | 0.00 | 0.00 | 24 | 965.8 |
| 20260902003359 | 85 | 131 | 4.0 | 7.0 | 0.00 | 0.00 | 0.00 | 22 | 965.9 |
| 20260902003352 | 84 | 110 | 2.0 | 7.0 | 0.00 | 0.00 | 0.00 | 24 | 965.9 |
| 20260902001902 | 85 | 103 | 2.0 | 9.0 | 0.00 | 0.00 | 0.00 | 23 | 965.9 |
| 20260902001854 | 85 | 80 | 1.0 | 7.0 | 0.00 | 0.00 | 0.00 | 23 | 965.9 |
| 20260902001517 | 85 | 102 | 3.0 | 9.0 | 0.00 | 0.00 | 0.00 | 23 | 965.9 |
| 20260902000352 | 85 | 111 | 3.0 | 9.0 | 0.00 | 0.00 | 0.00 | 24 | 966.0 |
| 20260901235853 | 85 | 131 | 3.0 | 9.0 | 0.00 | 0.00 | 0.00 | 24 | 966.0 |
| 20260901235352 | 85 | 97 | 2.0 | 7.0 | 0.00 | 0.00 | 0.00 | 24 | 966.0 |
| 20260901234853 | 85 | 68 | 1.0 | 7.0 | 0.00 | 0.00 | 0.00 | 24 | 966.0 |
| 20260901234358 | 85 | 155 | 3.0 | 7.0 | 0.00 | 0.00 | 0.00 | 24 | 966.0 |
| 20260901234352 | 85 | 118 | 1.0 | 6.0 | 0.00 | 0.00 | 0.00 | 24 | 966.0 |
| 20260901233352 | 85 | 162 | 3.0 | 7.0 | 0.00 | 0.00 | 0.00 | 22 | 966.1 |
| 20260901232854 | 86 | 102 | 1.0 | 7.0 | 0.00 | 0.00 | 0.00 | 23 | 966.1 |
| 20260901232351 | 86 | 102 | 4.0 | 7.0 | 0.00 | 0.00 | 0.00 | 23 | 966.1 |
| 20260901231853 | 86 | 90 | 2.0 | 9.0 | 0.00 | 0.00 | 0.00 | 23 | 966.1 |
| 20260901231350 | 86 | 59 | 4.0 | 9.0 | 0.00 | 0.00 | 0.00 | 26 | 966.1 |
| 20260901230853 | 86 | 78 | 2.0 | 5.0 | 0.00 | 0.00 | 0.00 | 24 | 966.4 |